Location: Village de las Huertas
(35.3014°N, 106.4095°W)
Time: 09:24:36
(UTC+00:00)

SAR-Lupe-1 - Pass Details

Date: 29 October 2020
Orbit: 480 x 485 km, 98.2° (Epoch: 26 November)

Event Time Altitude Azimuth Distance (km) Brightness Sun altitude
Rises 12:13:22 0° 167° (SSE) 2,526 8.0 -15.1°
Reaches altitude 10° 12:15:25 10° 168° (SSE) 1,651 7.0 -14.7°
Maximum altitude 12:18:58 87° 255° (WSW) 487 3.9 -14.0°
Drops below altitude 10° 12:22:32 10° 347° (NNW) 1,662 6.6 -13.3°
Sets 12:24:36 0° 348° (NNW) 2,545 7.5 -12.8°
